Albogasio, Italy

12:02 PM CEST on July 22, 2017 (GMT +0200)
Albogasio

Weather History for 06770 - May, 2013

Change the Weather History Date:

Friday, May 10, 2013

  Actual Average Record
Temperature  
Mean Temperature 63 °F -  
Max Temperature 69 °F 67 °F - ()
Min Temperature 57 °F 53 °F - ()
Degree Days  
Heating Degree Days 2    
Growing Degree Days 13 (Base 50)    
Moisture  
Dew Point 57 °F    
Average Humidity 84    
Maximum Humidity 100    
Minimum Humidity 60    
Precipitation  
Precipitation 0.12 in 0.25 in - ()
Sea Level Pressure  
Sea Level Pressure 29.90 in    
Wind  
Wind Speed 3 mph ()    
Max Wind Speed 10 mph    
Max Gust Speed -    
Visibility 5.0 miles    
Events Rain    
T = Trace of Precipitation, MM = Missing Value Source: Averaged Metar Reports

Daily Weather History Graph

Daily Weather History Graph

Search for Another Location

Airport or City:

Trip Planner

Search our weather history database for the weather conditions in past years. The results will help you decide how hot, cold, wet, or windy it might be!

Date:

Astronomy

May. 10, 2013 Rise Set
Actual Time 5:58 AM CEST 8:43 PM CEST
Civil Twilight 5:23 AM CEST 9:18 PM CEST
Nautical Twilight 4:40 AM CEST 10:01 PM CEST
Astronomical Twilight 3:49 AM CEST 10:53 PM CEST
Moon 6:11 AM CEST (5/10) 9:19 PM CEST (5/10)
Length of Visible Light 15h 54m
Length of Day
14h 45m
New Moon, 0% of the Moon is Illuminated
May 10
New Moon
May 18
First Quarter
May 25
Full
May 31
Last Quarter
Jun 8
New

Hourly Weather History & Observations

Time (CEST) Temp. Dew Point Humidity Pressure Visibility Wind Dir Wind Speed Gust Speed Precip Events Conditions
12:00 AM 63 °F 58 °F 80% 29.92 in - Calm Calm - -  
12:20 AM 62.6 °F 57.2 °F 82% 29.92 in 6.2 mi Variable 1.2 mph - N/A   Overcast
12:50 AM 62.6 °F 57.2 °F 82% 29.92 in 6.2 mi Variable 1.2 mph - N/A   Overcast
1:00 AM 63 °F 57 °F 76% 29.91 in - WNW 1.2 mph - -  
1:20 AM 62.6 °F 57.2 °F 82% 29.92 in 6.2 mi Variable 1.2 mph - N/A   Overcast
1:50 AM 62.6 °F 57.2 °F 82% 29.89 in 6.2 mi South 6.9 mph - N/A   Scattered Clouds
2:20 AM 62.6 °F 55.4 °F 77% 29.92 in 6.2 mi SSE 5.8 mph - N/A   Overcast
2:50 AM 62.6 °F 55.4 °F 77% 29.92 in 6.2 mi South 6.9 mph - N/A   Mostly Cloudy
3:00 AM 64 °F 55 °F 65% 29.91 in - NNW 2.3 mph - -  
3:20 AM 60.8 °F 55.4 °F 82% 29.92 in 6.2 mi Variable 2.3 mph - N/A Rain Light Rain
3:50 AM 59.0 °F 57.2 °F 94% 29.92 in 6.2 mi Variable 2.3 mph - N/A Rain Light Rain
4:00 AM 61 °F 58 °F 88% 29.91 in - North 2.3 mph - -  
4:20 AM 59.0 °F 57.2 °F 94% 29.92 in 5.6 mi Variable 1.2 mph - N/A Rain Light Rain
4:50 AM 59.0 °F 59.0 °F 100% 29.92 in 1.8 mi Variable 2.3 mph - N/A Rain Light Rain
5:20 AM 59.0 °F 59.0 °F 100% 29.89 in 1.9 mi Variable 2.3 mph - N/A Rain Rain
5:50 AM 59.0 °F 59.0 °F 100% 29.89 in 1.8 mi Variable 1.2 mph - N/A Rain Light Rain
6:20 AM 59.0 °F 59.0 °F 100% 29.92 in 3.1 mi South 2.3 mph - N/A Rain Light Rain
6:50 AM 59.0 °F 59.0 °F 100% 29.92 in 2.5 mi South 3.5 mph - N/A Rain Light Rain
7:20 AM 59.0 °F 57.2 °F 94% 29.92 in 2.5 mi South 4.6 mph - N/A Rain Rain
7:50 AM 59.0 °F 57.2 °F 94% 29.92 in 2.5 mi SSE 2.3 mph - N/A Rain Rain
8:20 AM 59.0 °F 57.2 °F 94% 29.92 in 1.9 mi Variable 1.2 mph - N/A Rain Rain
8:50 AM 59.0 °F 57.2 °F 94% 29.92 in 2.5 mi Variable 1.2 mph - N/A Rain Rain
9:00 AM 58 °F 58 °F 98% 29.92 in - SW 1.2 mph - -  
9:20 AM 59.0 °F 59.0 °F 100% 29.92 in 2.5 mi Calm Calm - N/A Rain Light Rain
9:50 AM 59.0 °F 57.2 °F 94% 29.92 in 2.5 mi Variable 1.2 mph - N/A Rain Light Rain
10:00 AM 59 °F 59 °F 98% 29.93 in - East 1.2 mph - -  
10:20 AM 59.0 °F 57.2 °F 94% 29.92 in 2.8 mi Variable 2.3 mph - N/A Rain Rain
10:50 AM 59.0 °F 57.2 °F 94% 29.92 in 2.8 mi Variable 1.2 mph - N/A Rain Rain
11:20 AM 59.0 °F 57.2 °F 94% 29.92 in 2.8 mi South 3.5 mph - N/A Rain Rain
11:50 AM 59.0 °F 55.4 °F 88% 29.92 in 3.7 mi Variable 1.2 mph - N/A Rain Rain
12:00 PM 58 °F 57 °F 95% 29.94 in - NNW 1.2 mph - -  
12:20 PM 57.2 °F 57.2 °F 100% 29.92 in 5.0 mi NNE 2.3 mph - N/A Rain Rain
12:50 PM 60.8 °F 55.4 °F 82% 29.92 in 6.2 mi Variable 3.5 mph - N/A Rain Light Rain
1:00 PM 59 °F 56 °F 88% 29.92 in - South 2.3 mph - -  
1:20 PM 62.6 °F 55.4 °F 77% 29.92 in 6.2 mi NE 4.6 mph - N/A   Mostly Cloudy
1:50 PM 64.4 °F 57.2 °F 77% 29.89 in 6.2 mi Variable 3.5 mph - N/A   Mostly Cloudy
2:20 PM 64.4 °F 57.2 °F 77% 29.89 in 6.2 mi SE 6.9 mph - N/A   Mostly Cloudy
2:50 PM 64.4 °F 57.2 °F 77% 29.89 in 6.2 mi ESE 10.4 mph - N/A   Mostly Cloudy
3:00 PM 64 °F 56 °F 69% 29.88 in - ESE 10.4 mph - -  
3:20 PM 64.4 °F 55.4 °F 73% 29.89 in 6.2 mi SE 6.9 mph - N/A   Mostly Cloudy
3:50 PM 68.0 °F 53.6 °F 60% 29.86 in 6.2 mi ESE 5.8 mph - N/A   Scattered Clouds
4:00 PM 67 °F 57 °F 62% 29.86 in - SE 10.4 mph - -  
4:20 PM 69.8 °F 55.4 °F 60% 29.86 in 6.2 mi ESE 6.9 mph - N/A   Scattered Clouds
4:50 PM 68.0 °F 53.6 °F 60% 29.86 in 6.2 mi SSW 4.6 mph - N/A   Scattered Clouds
5:20 PM 66.2 °F 51.8 °F 60% 29.86 in 6.2 mi WSW 8.1 mph - N/A   Mostly Cloudy
5:50 PM 66.2 °F 53.6 °F 64% 29.86 in 6.2 mi SSW 6.9 mph - N/A   Mostly Cloudy
6:00 PM 64 °F 56 °F 68% 29.86 in - SW 5.8 mph - -  
6:20 PM 64.4 °F 53.6 °F 68% 29.86 in 6.2 mi Variable 4.6 mph - N/A   Mostly Cloudy
6:50 PM 64.4 °F 55.4 °F 73% 29.86 in 6.2 mi SSE 5.8 mph - N/A   Mostly Cloudy
7:00 PM 64 °F 56 °F 67% 29.86 in - SW 2.3 mph - -  
7:20 PM 62.6 °F 55.4 °F 77% 29.86 in 6.2 mi SSE 4.6 mph - N/A   Mostly Cloudy
7:50 PM 62.6 °F 57.2 °F 82% 29.86 in 6.2 mi SSW 2.3 mph - N/A   Mostly Cloudy
8:20 PM 62.6 °F 57.2 °F 82% 29.86 in 6.2 mi Variable 1.2 mph - N/A   Mostly Cloudy
8:50 PM 60.8 °F 57.2 °F 88% 29.86 in 6.2 mi SSE 2.3 mph - N/A   Mostly Cloudy
9:00 PM 62 °F 57 °F 79% 29.87 in - SW 1.2 mph - -  
9:20 PM 60.8 °F 57.2 °F 88% 29.89 in 6.2 mi Variable 2.3 mph - N/A   Mostly Cloudy
9:50 PM 59.0 °F 57.2 °F 94% 29.89 in 6.2 mi Variable 1.2 mph - N/A   Mostly Cloudy
10:00 PM 62 °F 56 °F 77% 29.88 in - West 1.2 mph - -  
10:20 PM 59.0 °F 55.4 °F 88% 29.89 in 6.2 mi Variable 1.2 mph - N/A   Partly Cloudy
10:50 PM 59.0 °F 57.2 °F 94% 29.89 in 6.2 mi SSE 2.3 mph - N/A   Scattered Clouds
11:20 PM 57.2 °F 57.2 °F 100% 29.89 in 6.2 mi SSE 2.3 mph - N/A   Partly Cloudy
11:50 PM 57.2 °F 55.4 °F 94% 29.89 in 6.2 mi SSE 2.3 mph - N/A   Partly Cloudy